Weather in Chernoye Ozero

Russia / Mari El Republic     56°21′35″N   47°24′12″E
temp.,
°C
wind,
m/s
gust,
m/s
humid.,
%
clouds,
%
prec.,
mm/h
press.,
hPa
HPBL,
m
7 march, sun
sun700:00−15wsw239775 0.0 101125
03:00−16wsw229757 0.1 101122
06:00−16wsw239895 0.1 101029
09:00−12ssw259695 0.1 1009245
12:00−9ssw479295 0.0 1007476
15:00−7s5108797 0.1 1003731
18:00−8s61293100 0.3 1000915
21:00−7s61393100 1.2 997826
8 march, mon
mon800:00−5s51194100 0.8 993739
03:00−6s41095100 1.2 990515
06:00−4ssw3995100 1.8 988567
09:00−6w91592100 2.9 990908
12:00−5w81572100 0.4 9941367
15:00−5w6984100 0.4 9971032
18:00−9wsw359191 0.1 999110
21:00−10sw229394 0.1 100127
9 march, tue
tue900:00−13wnw229677 0.0 100120
03:00−15wnw239888 0.0 100224
06:00−16nw239896 0.0 100547
09:00−13nw359590 0.1 1007274
12:00−10nw348999 0.1 1009690
15:00−10nnw3588100 0.2 1010810
18:00−14nnw3793100 0.1 1011220
21:00−18nnw259884 0.1 101490
10 march, wed
wed1000:00−21nnw239980 0.0 101469
03:00−23nnw259983 0.1 1016114
06:00−26nnw369894 0.0 1017118
09:00−24nnw369586 0.0 1019300
12:00−20nnw469283 0.0 1021532
15:00−18nnw468892 0.0 1021604
18:00−22nw239457 0.0 102220
21:00−24w239732 0.0 102357
11 march, thu
thu1100:00−24w389817 0.0 1022142
03:00−24w389944 0.0 1022172
06:00−22w4109779 0.1 1021288
09:00−18wnw599489 0.2 1021371
12:00−12wnw51090100 0.1 1021619
15:00−8wnw5118698 0.1 1022920
18:00−9wnw41093100 0.3 1022683
21:00−12wnw3109295 0.3 1024296